Regional Weather Roundup
Issued by NWS

Home | Current Version | Previous Version | Text Only | Print | Product List | Glossary On
Versions: 1 2 3 4 5 6 7 8 9 10 11 12 13 14 15 16 17 18 19 20 21 22 23 24 25 26 27 28 29 30 31 32 33 34 35 36 37 38 39 40 41 42 43 44 45 46 47 48 49 50
000
ASUS43 KTOP 301159
RWRKS

WEATHER ROUNDUP FOR KANSAS
NATIONAL WEATHER SERVICE GOODLAND KS
700 AM CDT THU OCT 30 2014

NOTE:  "FAIR" INDICATES FEW OR NO CLOUDS BELOW 12,000 FEET WITH NO
SIGNIFICANT WEATHER AND/OR OBSTRUCTIONS TO VISIBILITY.

KSZ001>006-013>018-027>032-041>047-301300-
NORTHWEST KANSAS

CITY           SKY/WX    TMP DP  RH WIND       PRES   REMARKS
GOODLAND       CLEAR     38  25  59 W9        30.25R
6HR MIN TEMP:  38; 6HR MAX TEMP:  46;

HAYS           CLEAR     48  28  46 NW13      30.11R
HILL CITY      CLEAR     48  27  44 NW14      30.15R
6HR MIN TEMP:  48; 6HR MAX TEMP:  57; 6HR PCP: TRACE;

RUSSELL        CLEAR     46  33  60 NW16      30.10R
6HR MIN TEMP:  46; 6HR MAX TEMP:  51;

$$

KSZ061>065-074>080-084>089-301300-
SOUTHWEST KANSAS

CITY           SKY/WX    TMP DP  RH WIND       PRES   REMARKS
DODGE CITY     CLEAR     44  29  55 N8        30.15R
6HR MIN TEMP:  41; 6HR MAX TEMP:  54;

ELKHART          N/A     47  26  44 NW9         N/A
GARDEN CITY    CLEAR     44  28  53 N12       30.17R
6HR MIN TEMP:  40; 6HR MAX TEMP:  48;

GREAT BEND     CLEAR     46  30  53 NW9       30.10R
LIBERAL        CLEAR     43  34  70 NW9       30.18R
$$

KSZ066>073-081>083-090>101-301300-
SOUTHEAST KANSAS

CITY           SKY/WX    TMP DP  RH WIND       PRES   REMARKS
CHANUTE        MOCLDY    51  41  68 S14       30.04F
6HR MIN TEMP:  45; 6HR MAX TEMP:  51;

COFFEYVILLE    PTCLDY    45  42  89 S8        30.07S
6HR MIN TEMP:  45; 6HR MAX TEMP:  48;

HUTCHINSON     PTCLDY    46  35  65 NW7       30.05R
6HR MIN TEMP:  45; 6HR MAX TEMP:  52;

NEWTON         PTCLDY    52  30  43 W14       30.05R
PARSONS        PTCLDY    48  42  80 S7        30.07S
6HR MIN TEMP:  42; 6HR MAX TEMP:  49;

WICHITA INTL   MOCLDY    49  36  61 VRB5      30.05R
6HR MIN TEMP:  45; 6HR MAX TEMP:  52;

WICHITA JABRA  CLOUDY    52  36  54 SW12      30.03S
6HR MIN TEMP:  49; 6HR MAX TEMP:  54;

WINFIELD       PTCLDY    52  39  61 SW9       30.08R
6HR MIN TEMP:  50; 6HR MAX TEMP:  54;

$$

KSZ007>012-019>026-033>040-048>060-102>105-301300-
NORTHEAST KANSAS

CITY           SKY/WX    TMP DP  RH WIND       PRES   REMARKS
CONCORDIA      CLEAR     43  38  82 NW9       30.05R
6HR MIN TEMP:  43; 6HR MAX TEMP:  55;

EMPORIA        CLOUDY    57  38  48 SW13      30.00R
6HR MIN TEMP:  45; 6HR MAX TEMP:  57;

LAWRENCE       CLOUDY    49  40  71 S3        30.00S
6HR MIN TEMP:  40; 6HR MAX TEMP:  52;

MANHATTAN      PTCLDY    50  36  58 W6        30.00R
6HR MIN TEMP:  43; 6HR MAX TEMP:  56;

OLATHE IND     CLOUDY    49  40  71 S5        30.01S
6HR MIN TEMP:  45; 6HR MAX TEMP:  49;

OLATHE EXE     LGT RAIN  50  41  71 S3        30.01S
6HR MIN TEMP:  44; 6HR MAX TEMP:  51; 6HR PCP: TRACE;

SALINA         CLEAR     50  39  66 NW15      30.04R
6HR MIN TEMP:  50; 6HR MAX TEMP:  54;

TOPEKA BILLARD MOCLDY    52  41  66 S6        29.99F
6HR MIN TEMP:  43; 6HR MAX TEMP:  53;

TOPEKA FORBES  MOCLDY    52  40  63 SW6       29.99R
6HR MIN TEMP:  47; 6HR MAX TEMP:  53;

$$



USA.gov is the U.S. government's official web portal to all federal, state and local government web resources and services.